Weather History for Wager Bay, NT

Change the Weather History Date:

Sunday, October 14, 2012

  Actual Average Record
Temperature  
Mean Temperature 20 °F -  
Max Temperature 28 °F - - ()
Min Temperature 12 °F - - ()
Degree Days  
Heating Degree Days 45    
Moisture  
Dew Point 19 °F    
Average Humidity 84    
Maximum Humidity 89    
Minimum Humidity 75    
Precipitation  
Precipitation 0.01 in - - ()
Sea Level Pressure  
Sea Level Pressure 29.67 in    
Wind  
Wind Speed 17 mph ()    
Max Wind Speed 24 mph    
Max Gust Speed 31 mph    
T = Trace of Precipitation, MM = Missing Value Source: Averaged Metar Reports

Daily Weather History Graph

Daily Weather History Graph

Search for Another Location

Airport:

Trip Planner

Search our weather history database for the weather conditions in past years. The results will help you decide how hot, cold, wet, or windy it might be!

Date:

Astronomy

Oct. 14, 2012 Rise Set
Actual Time 6:52 AM MDT 4:33 PM MDT
Civil Twilight 6:00 AM MDT 5:25 PM MDT
Nautical Twilight 5:01 AM MDT 6:24 PM MDT
Astronomical Twilight 4:00 AM MDT 7:24 PM MDT
Moon 5:46 AM MDT (10/14) 3:47 PM MDT (10/14)
Length of Visible Light 11h 25m
Length of Day
9h 41m
Waning Crescent, 1% of the Moon is Illuminated
Oct 14
Waning Crescent
Oct 15
New
Oct 21
First Quarter
Oct 29
Full
Nov 6
Last Quarter

Hourly Weather History & Observations

Time (MDT) Temp. Windchill Dew Point Humidity Pressure Visibility Wind Dir Wind Speed Gust Speed Precip Events Conditions
12:00 AM 22 °F - 19 °F 84% 29.63 in - WNW 21.9 mph - -  
12:00 AM 22.1 °F 6.4 °F 19.2 °F 89% 29.63 in - WNW 21.9 mph - N/A   Unknown
1:00 AM 22.5 °F 6.9 °F 19.4 °F 88% 29.63 in - WNW 21.9 mph - N/A   Unknown
2:00 AM 22.5 °F 6.2 °F 19.2 °F 87% 29.62 in - WNW 24.2 mph - N/A   Unknown
3:00 AM 22.6 °F 6.4 °F 19.0 °F 86% 29.63 in - WNW 24.2 mph - N/A   Unknown
4:00 AM 22.1 °F 6.0 °F 18.1 °F 85% 29.63 in - WNW 23.0 mph - N/A   Unknown
5:00 AM 21.9 °F 6.2 °F 17.6 °F 83% 29.64 in - WNW 21.9 mph - N/A   Unknown
6:00 AM 22 °F - 19 °F 82% 29.64 in - WNW 24.2 mph - -  
6:00 AM 21.7 °F 5.2 °F 18.9 °F 89% 29.64 in - WNW 24.2 mph - N/A   Unknown
7:00 AM 22.3 °F 5.9 °F 18.9 °F 87% 29.63 in - WNW 24.2 mph 31.1 mph N/A   Unknown
8:00 AM 22.3 °F 5.9 °F 18.0 °F 83% 29.64 in - WNW 24.2 mph - N/A   Unknown
9:00 AM 23.0 °F 7.6 °F 19.2 °F 85% 29.64 in - NW 21.9 mph - N/A   Unknown
10:00 AM 25.2 °F 10.8 °F 20.5 °F 82% 29.64 in - WNW 20.7 mph - N/A   Unknown
11:00 AM 25.7 °F 12.3 °F 21.4 °F 84% 29.64 in - WNW 18.4 mph - N/A   Unknown
12:00 PM 27 °F - 23 °F 79% 29.64 in - WNW 15.0 mph - -  
12:00 PM 27.0 °F 15.2 °F 23.2 °F 86% 29.64 in - WNW 15.0 mph - N/A   Unknown
1:00 PM 28.2 °F 20.2 °F 24.3 °F 85% 29.64 in - NW 8.1 mph - N/A   Unknown
2:00 PM 27.3 °F 19.1 °F 24.1 °F 88% 29.65 in - NNW 8.1 mph - N/A   Unknown
3:00 PM 26.6 °F 19.1 °F 23.5 °F 88% 29.67 in - NW 6.9 mph - N/A   Unknown
4:00 PM 26.4 °F 20.9 °F 23.4 °F 88% 29.69 in - NNW 4.6 mph - N/A   Unknown
5:00 PM 25.7 °F 14.0 °F 22.6 °F 88% 29.71 in - NW 13.8 mph - N/A   Unknown
6:00 PM 24 °F - 19 °F 75% 29.74 in - NNW 13.8 mph - -  
6:00 PM 24.3 °F 12.2 °F 19.4 °F 82% 29.74 in - NNW 13.8 mph - N/A   Unknown
7:00 PM 20.5 °F 8.0 °F 15.3 °F 80% 29.75 in - North 12.7 mph - N/A   Unknown
8:00 PM 20.1 °F 8.8 °F 14.5 °F 79% 29.76 in - North 10.4 mph - N/A   Unknown
9:00 PM 14.7 °F 1.4 °F 10.0 °F 82% 29.76 in - North 11.5 mph - N/A   Unknown
10:00 PM 12.7 °F 1.4 °F 8.4 °F 83% 29.78 in - North 8.1 mph - N/A   Unknown
11:00 PM 13.5 °F 3.3 °F 8.4 °F 80% 29.78 in - NNW 6.9 mph - N/A   Unknown